Regional Weather Roundup
Issued by NWS Mt. Holly, NJ

Home | Current Version | Previous Version | Text Only | Print | Product List | Glossary On
Versions: 1 2 3 4 5 6 7 8 9 10 11 12 13 14 15 16 17 18 19 20 21 22 23 24 25 26 27 28
000
ASUS41 KPHI 170413
RWRPHI

REGIONAL WEATHER ROUNDUP
NATIONAL WEATHER SERVICE MOUNT HOLLY NJ
1200 AM EDT THU AUG 17 2017

NOTE:  "FAIR" INDICATES FEW OR NO CLOUDS BELOW 12,000 FEET WITH NO
SIGNIFICANT WEATHER AND/OR OBSTRUCTIONS TO VISIBILITY.

 * = STATION DOES NOT REPORT PRECIPITATION (E.G. RAIN, SNOW, ETC.)
        OR FOG.

NJZ015>026-170500-
SOUTHERN NEW JERSEY

CITY           SKY/WX    TMP DP  RH WIND       PRES   REMARKS
POMONA         CLEAR     75  72  90 CALM      30.02S
WILDWOOD*      CLEAR     74  71  91 CALM      30.03S
MILLVILLE      CLEAR     71  70  96 W3        30.02S
WRIGHTSTOWN    CLEAR     70  68  95 CALM      30.00S
MOUNT HOLLY    CLEAR     69  69 100 CALM      30.02R FOG
TRENTON        MOCLDY    71  68  90 CALM      30.02S

$$
NJZ001>014-170500-
NORTHERN NEW JERSEY

CITY           SKY/WX    TMP DP  RH WIND       PRES   REMARKS
SUSSEX         CLEAR     63  62  97 CALM      30.06R
ANDOVER*         N/A     64  62  93 CALM      30.06S
MORRISTOWN     CLEAR     63  63 100 CALM      30.04R
NEWARK         CLEAR     75  62  64 NW6       30.01R
TETERBORO      CLEAR     74  63  68 N6        30.01R
CALDWELL       CLEAR     68  65  90 CALM      30.04R
SOMERVILLE     CLEAR     67  66  97 CALM      30.01S
ALLAIRE*       CLEAR     72  68  87 SW6       30.04R
TOMS RIVER*    CLEAR     68  66  93 CALM      30.03R

$$
PAZ043-044-047-054-055-060>062-066>071-170500-
EASTERN PENNSYLVANIA

CITY           SKY/WX    TMP DP  RH WIND       PRES   REMARKS
PHILADELPHIA   PTCLDY    76  69  79 CALM      30.02S
NORTH PHILA    CLEAR     73  66  78 CALM      30.04S
BLUE BELL*     CLEAR     64  64 100 CALM      30.05S
DOYLESTOWN     CLEAR     67  66  97 CALM      30.03S
QUAKERTOWN*    CLEAR     64  64 100 CALM      30.06S
PERKASIE*      CLOUDY    64  64 100 CALM      30.06S FOG
POTTSTOWN      CLEAR     67  66  97 CALM      30.05S
LANCASTER      CLEAR     68  66  93 CALM      30.04S
COATESVILLE    CLEAR     68  64  88 CALM      30.06S
READING        CLEAR     70  68  93 CALM      30.03S
ALLENTOWN      PTCLDY    68  64  87 NW3       30.04S
MOUNT POCONO   CLEAR     59  57  93 N5        30.11S
HAZLETON         N/A     59  54  82 CALM      30.13S
LEHIGHTON      FAIR      61  61 100 CALM      30.06S
WILKES BARRE   PTCLDY    65  59  81 E6        30.08S

$$
DEZALL-MDZ008-012-015-019-020-170500-
DELAWARE AND EASTERN MARYLAND

CITY           SKY/WX    TMP DP  RH WIND       PRES   REMARKS
WILMINGTON     CLEAR     71  69  93 VRB3      30.03S
DOVER          CLEAR     73  70  88 SW7       30.01S
GEORGETOWN     MOCLDY    76  71  85 CALM      30.03F
EASTON         CLEAR     73  71  91 CALM      30.07S
ABERDEEN       CLEAR     68  67  98 CALM      30.03S
PATUXENT       MOCLDY    76  74  93 CALM      30.03R
OCEAN CITY     CLOUDY    75  73  93 W5        30.04S
WALLOPS ISLAND PTCLDY    74  74 100 SW7       30.04S
CAMBRIDGE      CLOUDY    73  70  88 CALM      30.03S
SALISBURY      CLOUDY    74  71  91 S3        30.03R

$$
PAZ001-021-NYZ056-072-MDZ011-DCZ001-170500-
OTHER NEARBY LOCATIONS

CITY           SKY/WX    TMP DP  RH WIND       PRES   REMARKS
HARRISBURG     CLEAR     70  67  90 CALM      30.03R
STATE COLLEGE  PTCLDY    64  60  87 CALM      30.08S
WILLIAMSPORT   CLOUDY    67  63  87 CALM      30.05R
BINGHAMTON     CLEAR     59  54  83 N5        30.11R
NEW YORK CITY  CLEAR     76  62  62 MISG      30.04S
BALTIMORE      PTCLDY    72  71  97 CALM      30.03S
WASHINGTON DC  CLOUDY    81  76  84 SE3       30.03S

$$




USA.gov is the U.S. government's official web portal to all federal, state and local government web resources and services.